Regional Weather Roundup
Issued by NWS

Home | Current Version | Previous Version | Graphics & Text | Print | Product List | Glossary On
Versions: 1 2 3 4 5 6 7 8 9 10 11 12 13 14 15 16 17 18 19 20 21 22 23 24 25 26 27 28 29 30 31 32 33 34 35 36 37 38 39 40 41 42 43 44 45 46 47 48 49 50
427
ASUS44 KMEG 090400
RWRTN
TENNESSEE HOURLY STATE WEATHER ROUNDUP
NATIONAL WEATHER SERVICE MEMPHIS TN
1000 PM CST MON FEB 08 2016

TNZ002-004-019-021-049-052-054-088>092-090500-
WEST TENNESSEE

CITY           SKY/WX    TMP DP  RH WIND       PRES   REMARKS
MEMPHIS INTL   CLOUDY    37  19  48 NW12G22   30.00S WCI  29
NWS MEMPHIS      N/A     36 N/A N/A MISG        N/A
JACKSON        CLOUDY    34  20  56 NW14G24   29.96S WCI  25
DYERSBURG      CLOUDY    34  19  55 NW13G18   29.98S WCI  25
PARIS          CLOUDY    27  16  63 NW10      29.92F WCI  17
$$

TNZ008-025-027-028-033-062-065-066-090500-
NORTH MIDDLE TENNESSEE

CITY           SKY/WX    TMP DP  RH WIND       PRES   REMARKS
NASHVILLE      LGT SNOW  30  24  78 NW9       29.90S WCI  22
CLARKSVILLE    LGT SNOW  26  20  77 NW10      29.92R WCI  16
CROSSVILLE     LGT SNOW  25  19  78 W17G26    29.79R WCI  12
$$

TNZ061-075-076-078-094-096-097-090500-
SOUTH MIDDLE TENNESSEE

CITY           SKY/WX    TMP DP  RH WIND       PRES   REMARKS
TULLAHOMA      CLOUDY    27  27 100 NW7       29.87S WCI  19
WINCHESTER     CLOUDY    30  25  80 NW8       29.88R WCI  23
SHELBYVILLE    CLOUDY    30  27  86 W7        29.89F WCI  23
$$

TNZ017-018-042-046-047-090500-
NORTHEAST TENNESSEE

CITY           SKY/WX    TMP DP  RH WIND       PRES   REMARKS
TRI CITIES     FLURRIES  32  28  85 W7        29.69F WCI  26
$$

TNZ012-013-036-069-073-074-090500-
CENTRAL EAST TENNESSEE

CITY           SKY/WX    TMP DP  RH WIND       PRES   REMARKS
KNOXVILLE      FLURRIES  32  23  69 W12       29.80R WCI  23
OAK RIDGE      CLOUDY    32  21  64 W7        29.82R WCI  26
GATLINBURG     CLOUDY    30  23  74 SW9       29.78R WCI  22
$$

TNZ083-085-099-090500-
SOUTHEAST TENNESSEE

CITY           SKY/WX    TMP DP  RH WIND       PRES   REMARKS
CHATTANOOGA    PTCLDY    34  23  64 W12       29.86F WCI  25
$$

SKY/WX REPORTED AS FAIR MEANS FEW OR NO CLOUDS BELOW
12 THOUSAND FEET.





USA.gov is the U.S. government's official web portal to all federal, state and local government web resources and services.